Location: *
(2.5500°S, 65.9667°W)
Time: 13:21:29
(UTC+00:00)

H-2A R/B - Pass Details

Date: 04 June 2022
Orbit: 734 x 836 km, 98.2° (Epoch: 30 June)

Event Time Altitude Azimuth Distance (km) Brightness Sun altitude
Rises 23:03:11 0° 191° (S) 3,180 5.1 -10.4°
Reaches altitude 10° 23:05:49 10° 204° (SSW) 2,265 4.5 -11.0°
Maximum altitude 23:09:49 25° 258° (WSW) 1,506 4.2 -11.9°
Drops below altitude 10° 23:13:53 10° 311° (NW) 2,301 5.7 -12.9°
Sets 23:16:36 0° 325° (NW) 3,242 6.3 -13.5°
